Retour au catalogue

STARLINK-3629

ActifCommunicationsVLEO
NORAD 51774·PAYLOAD·🇺🇸 United States

Lancé Feb 25, 2022 depuis Vandenberg Space Force Base

Loading…

Prochains Passages (prochaines 24 heures)

TLE

FraisSource: CelesTrak SupGP

Époque: Sep 15, 2026, 02:26 UTC

1 51774C 22017G   26258.10187500 -.00051196  00000+0 -15130-2 0  2584
2 51774  53.1608 203.2923 0001425  82.4849 240.7953 15.34408152    11

Suivez STARLINK-3629 en temps réel avec AllMySat

Download on the App Store